Home   Weather   Le Mans   Past weeks

Flag for France Past Weather in Le Mans, Pays de la Loire, France — Yesterday and Last 2 Weeks

43 °F


Feels Like: 41 °F
Forecast: 42 / 53 °F
Wind: 3 mph from North

Location: Le Mans Airport

Current Time: Oct 22, 2016 at 10:54:33 AM

Latest Report: Oct 22, 2016 at 10:30 AM

Visibility: 0 mi

Pressure: 29.98 "Hg

Humidity: 93%

Dew Point: 41 °F

Location of Le MansLocation

Past Weather in Le Mans — Graph


Le Mans Temperature Yesterday

Maximum temperature yesterday: 61 °F (at 5:30 PM)
Minimum temperature yesterday: 37 °F (at 6:30 AM)
Average temperature yesterday: 49 °F

High & Low Weather Summary for the Past Weeks

High68 °F (Oct 16, 3:00 PM)100% (Oct 9, 9:00 AM)30.30 "Hg (Oct 9, 9:00 AM)
Low36 °F (Oct 11, 8:00 AM)36% (Oct 12, 3:30 PM)29.62 "Hg (Oct 14, 5:00 AM)
Average51 °F80%30.06 "Hg
* Reported Oct 7 9:30 AM — Oct 22 9:30 AM, Le Mans, Weather by CustomWeather, © 2016

Note: Actual official high and low records may vary slightly from our data, if they occured in-between our weather recording intervals... More about our weather records


Le Mans Weather History for the Previous 24 Hours

Scroll right to see more
Time TempWeatherWind HumidityBarometerVisibility
9:30 AM
Sat, Oct 22
41 °FFog.5 mph100%29.98 "Hg1 mi
9:00 AM41 °FFog.2 mph93%29.98 "Hg0 mi
8:30 AM41 °FFog.2 mph93%29.98 "Hg0 mi
8:00 AM41 °FFog.No wind100%29.98 "Hg1 mi
7:30 AM39 °FFog.1 mph100%29.98 "Hg0 mi
7:00 AM37 °FFog.1 mph100%29.98 "Hg0 mi
6:30 AM39 °FFog.No wind93%29.98 "Hg3 mi
6:00 AM39 °FDense fog.3 mph93%29.98 "Hg1 mi
5:30 AM39 °FFog.No wind93%29.98 "Hg1 mi
5:00 AM39 °FFog.No wind93%30.01 "Hg4 mi
4:30 AM39 °FPassing clouds.No wind93%30.01 "HgN/A
4:00 AM41 °FClear.No wind93%30.01 "Hg10 mi
3:30 AM41 °FClear.No wind93%30.01 "Hg4 mi
3:00 AM39 °FClear.No wind93%30.01 "Hg6 mi
2:00 AM39 °FFog.No wind93%30.04 "Hg2 mi
1:30 AM41 °FClear.No wind93%30.04 "Hg4 mi
1:00 AM43 °FClear.1 mph93%30.04 "Hg4 mi
12:30 AM43 °FClear.No wind87%30.04 "Hg10 mi
12:00 AM45 °FClear.1 mph87%30.04 "Hg10 mi
11:30 PM
Fri, Oct 21
45 °FClear.2 mph87%30.07 "Hg10 mi
11:00 PM48 °FClear.2 mph82%30.07 "Hg10 mi
10:30 PM52 °FClear.6 mph77%30.07 "Hg10 mi
10:00 PM52 °FClear.6 mph77%30.07 "Hg10 mi
9:30 PM52 °FClear.3 mph77%30.07 "Hg10 mi
9:00 PM54 °FClear.2 mph67%30.07 "Hg10 mi
8:30 PM55 °FClear.3 mph67%30.07 "Hg10 mi
8:00 PM54 °FMostly cloudy.1 mph72%30.07 "HgN/A
7:30 PM54 °FOvercast.No wind67%30.07 "HgN/A
7:00 PM55 °FClear.3 mph63%30.04 "Hg10 mi
6:30 PM57 °FPassing clouds.5 mph55%30.04 "HgN/A
6:00 PM59 °FPassing clouds.6 mph55%30.04 "HgN/A
5:30 PM61 °FPassing clouds.5 mph48%30.04 "HgN/A
5:00 PM59 °FPartly sunny.7 mph55%30.04 "HgN/A
4:30 PM59 °FBroken clouds.3 mph59%30.07 "HgN/A
4:00 PM59 °FOvercast.6 mph59%30.07 "HgN/A
3:30 PM59 °FOvercast.6 mph59%30.07 "HgN/A
3:00 PM59 °FMore clouds than sun.5 mph63%30.07 "HgN/A
2:30 PM59 °FMore clouds than sun.5 mph63%30.09 "HgN/A
2:00 PM57 °FOvercast.6 mph67%30.09 "HgN/A
1:30 PM57 °FOvercast.8 mph67%30.09 "HgN/A
1:00 PM57 °FMore clouds than sun.6 mph67%30.09 "HgN/A
12:30 PM57 °FBroken clouds.1 mph72%30.09 "HgN/A
12:00 PM54 °FPassing clouds.3 mph82%30.12 "HgN/A
11:30 AM52 °FSunny.3 mph94%30.09 "Hg10 mi
11:00 AM46 °FSunny.No wind100%30.09 "Hg10 mi
10:30 AM43 °FSunny.No wind100%30.09 "Hg10 mi
10:00 AM39 °FPassing clouds.No wind100%30.09 "Hg4 mi
Weather by CustomWeather, © 2016

See weather overviewHow to use our weather pages